FD128 YBRM-YLBD

Flight info

Callsign FD128
Flight time 0h 27m
Altitude 15000
Route YBRM
Aircraft B350/L-SBGRW/S

Departure

Time 2026-05-06 07:37
Airport Broome International Airport (YBRM)

Arrival

Time 2026-05-06 08:04
Airport Lombadina Airport (YLBD)
Time Latitude Longitude Altitude Speed Heading
2026-05-06 06:59 -17.94733 122.22859 58 ft 0 kts 15°
2026-05-06 07:23 -17.94732 122.22859 58 ft 0 kts 15°
2026-05-06 07:30 -17.94731 122.22860 58 ft 1 kts 15°
2026-05-06 07:30 -17.94722 122.22899 56 ft 12 kts 102°
2026-05-06 07:31 -17.94751 122.23018 53 ft 19 kts 104°
2026-05-06 07:31 -17.94786 122.23157 52 ft 20 kts 105°
2026-05-06 07:31 -17.94818 122.23273 50 ft 10 kts 111°
2026-05-06 07:31 -17.94856 122.23336 49 ft 3 kts 134°
2026-05-06 07:32 -17.94857 122.23336 49 ft 0 kts 134°
2026-05-06 07:35 -17.94859 122.23338 48 ft 2 kts 135°
2026-05-06 07:35 -17.94901 122.23377 45 ft 13 kts 139°
2026-05-06 07:35 -17.94974 122.23456 42 ft 15 kts 110°
2026-05-06 07:35 -17.95006 122.23584 37 ft 16 kts 104°
2026-05-06 07:36 -17.95036 122.23614 36 ft 0 kts 188°
2026-05-06 07:36 -17.95089 122.23602 36 ft 9 kts 200°
2026-05-06 07:36 -17.95094 122.23543 39 ft 29 kts 287°
2026-05-06 07:37 -17.94928 122.22917 89 ft 133 kts 285°
2026-05-06 07:37 -17.94635 122.21891 720 ft 161 kts 291°
2026-05-06 07:37 -17.94403 122.20746 1568 ft 180 kts 273°
2026-05-06 07:37 -17.94540 122.19329 2251 ft 206 kts 257°
2026-05-06 07:38 -17.95072 122.18126 3781 ft 179 kts 227°
2026-05-06 07:38 -17.96172 122.17602 4570 ft 195 kts 181°
2026-05-06 07:38 -17.97563 122.18066 4909 ft 226 kts 140°
2026-05-06 07:38 -17.98414 122.19310 6079 ft 206 kts 104°
2026-05-06 07:39 -17.98355 122.20692 7095 ft 198 kts 63°
2026-05-06 07:39 -17.97418 122.21772 7554 ft 210 kts 34°
2026-05-06 07:39 -17.96108 122.22575 7986 ft 222 kts 28°
2026-05-06 07:39 -17.94681 122.23349 8184 ft 244 kts 25°
2026-05-06 07:40 -17.93034 122.24043 8285 ft 264 kts 21°
2026-05-06 07:40 -17.91272 122.24753 8360 ft 275 kts 22°
2026-05-06 07:40 -17.89497 122.25522 8538 ft 275 kts 23°
2026-05-06 07:40 -17.87738 122.26332 8731 ft 275 kts 24°
2026-05-06 07:41 -17.85991 122.27171 8932 ft 276 kts 24°
2026-05-06 07:41 -17.84245 122.28016 9136 ft 276 kts 25°
2026-05-06 07:41 -17.82499 122.28865 9327 ft 276 kts 24°
2026-05-06 07:41 -17.80752 122.29716 9517 ft 276 kts 24°
2026-05-06 07:42 -17.79004 122.30568 9717 ft 277 kts 24°
2026-05-06 07:42 -17.77254 122.31421 9909 ft 277 kts 24°
2026-05-06 07:42 -17.75503 122.32276 10099 ft 277 kts 24°
2026-05-06 07:42 -17.73750 122.33132 10288 ft 277 kts 24°
2026-05-06 07:43 -17.71995 122.33988 10480 ft 278 kts 24°
2026-05-06 07:43 -17.70242 122.34843 10670 ft 278 kts 24°
2026-05-06 07:43 -17.68482 122.35702 10861 ft 279 kts 24°
2026-05-06 07:43 -17.66708 122.36567 11058 ft 282 kts 24°
2026-05-06 07:44 -17.64915 122.37441 11256 ft 285 kts 24°
2026-05-06 07:44 -17.63106 122.38322 11445 ft 287 kts 24°
2026-05-06 07:44 -17.61287 122.39209 11640 ft 288 kts 24°
2026-05-06 07:44 -17.59460 122.40099 11831 ft 290 kts 24°
2026-05-06 07:45 -17.57624 122.40994 12025 ft 291 kts 24°
2026-05-06 07:45 -17.55782 122.41891 12213 ft 292 kts 24°
2026-05-06 07:45 -17.53933 122.42792 12406 ft 293 kts 24°
2026-05-06 07:45 -17.52074 122.43697 12595 ft 295 kts 24°
2026-05-06 07:46 -17.50206 122.44606 12784 ft 296 kts 23°
2026-05-06 07:46 -17.48329 122.45520 12969 ft 298 kts 23°
2026-05-06 07:46 -17.46436 122.46438 13168 ft 300 kts 23°
2026-05-06 07:46 -17.44532 122.47363 13361 ft 302 kts 24°
2026-05-06 07:47 -17.42619 122.48293 13556 ft 303 kts 23°
2026-05-06 07:47 -17.40698 122.49227 13744 ft 304 kts 23°
2026-05-06 07:47 -17.38772 122.50163 13938 ft 305 kts 23°
2026-05-06 07:47 -17.36840 122.51101 14128 ft 306 kts 23°
2026-05-06 07:48 -17.34906 122.52041 14317 ft 306 kts 22°
2026-05-06 07:48 -17.32968 122.52982 14508 ft 307 kts 22°
2026-05-06 07:48 -17.31027 122.53925 14698 ft 307 kts 22°
2026-05-06 07:48 -17.29079 122.54871 14889 ft 308 kts 22°
2026-05-06 07:49 -17.27121 122.55821 14971 ft 313 kts 22°
2026-05-06 07:49 -17.25127 122.56788 14993 ft 318 kts 22°
2026-05-06 07:49 -17.23098 122.57773 14990 ft 323 kts 22°
2026-05-06 07:49 -17.21043 122.58770 14987 ft 327 kts 22°
2026-05-06 07:50 -17.18968 122.59777 14988 ft 329 kts 22°
2026-05-06 07:50 -17.16878 122.60790 14997 ft 331 kts 22°
2026-05-06 07:50 -17.14781 122.61800 15032 ft 331 kts 22°
2026-05-06 07:50 -17.12679 122.62804 15075 ft 332 kts 22°
2026-05-06 07:51 -17.10568 122.63805 15085 ft 333 kts 22°
2026-05-06 07:51 -17.08449 122.64802 15108 ft 334 kts 21°
2026-05-06 07:51 -17.06324 122.65794 15128 ft 334 kts 21°
2026-05-06 07:51 -17.04194 122.66781 15147 ft 334 kts 21°
2026-05-06 07:52 -17.02061 122.67762 15140 ft 335 kts 21°
2026-05-06 07:52 -16.99920 122.68739 15146 ft 335 kts 20°
2026-05-06 07:52 -16.97792 122.69704 15134 ft 326 kts 21°
2026-05-06 07:52 -16.95737 122.70641 14783 ft 321 kts 21°
2026-05-06 07:53 -16.93727 122.71561 14358 ft 309 kts 21°
2026-05-06 07:53 -16.91795 122.72453 13936 ft 298 kts 22°
2026-05-06 07:53 -16.89927 122.73322 13516 ft 289 kts 22°
2026-05-06 07:53 -16.88111 122.74170 13100 ft 282 kts 23°
2026-05-06 07:54 -16.86340 122.75002 12685 ft 276 kts 22°
2026-05-06 07:54 -16.84606 122.75821 12275 ft 271 kts 23°
2026-05-06 07:54 -16.82903 122.76628 11864 ft 267 kts 24°
2026-05-06 07:54 -16.81227 122.77427 11450 ft 263 kts 24°
2026-05-06 07:55 -16.79573 122.78220 11039 ft 260 kts 24°
2026-05-06 07:55 -16.77936 122.79009 10626 ft 258 kts 24°
2026-05-06 07:55 -16.76321 122.79792 10220 ft 255 kts 24°
2026-05-06 07:55 -16.74715 122.80574 9813 ft 253 kts 25°
2026-05-06 07:56 -16.73130 122.81350 9407 ft 251 kts 25°
2026-05-06 07:56 -16.71553 122.82126 9001 ft 249 kts 25°
2026-05-06 07:56 -16.69997 122.82895 8596 ft 247 kts 26°
2026-05-06 07:56 -16.68450 122.83663 8187 ft 245 kts 26°
2026-05-06 07:57 -16.66914 122.84428 7779 ft 244 kts 26°
2026-05-06 07:57 -16.65387 122.85193 7372 ft 243 kts 27°
2026-05-06 07:57 -16.63868 122.85957 6966 ft 241 kts 27°
2026-05-06 07:57 -16.62359 122.86719 6561 ft 240 kts 27°
2026-05-06 07:58 -16.60858 122.87480 6156 ft 239 kts 27°
2026-05-06 07:58 -16.59362 122.88241 5750 ft 238 kts 27°
2026-05-06 07:58 -16.57876 122.89000 5344 ft 237 kts 27°
2026-05-06 07:58 -16.56400 122.89757 4940 ft 236 kts 27°
2026-05-06 07:59 -16.54934 122.90511 4536 ft 234 kts 27°
2026-05-06 07:59 -16.53478 122.91263 4132 ft 233 kts 27°
2026-05-06 07:59 -16.52037 122.92011 3727 ft 229 kts 27°
2026-05-06 07:59 -16.50624 122.92744 3317 ft 225 kts 27°
2026-05-06 08:00 -16.49238 122.93461 2909 ft 221 kts 27°
2026-05-06 08:00 -16.47904 122.94232 2494 ft 218 kts 40°
2026-05-06 08:00 -16.47200 122.95561 2049 ft 214 kts 82°
2026-05-06 08:00 -16.47404 122.97056 1851 ft 201 kts 101°
2026-05-06 08:01 -16.47762 122.98400 1758 ft 187 kts 104°
2026-05-06 08:01 -16.48203 122.99683 1344 ft 187 kts 108°
2026-05-06 08:01 -16.49031 123.00632 707 ft 190 kts 163°
2026-05-06 08:01 -16.50222 123.00317 583 ft 171 kts 212°
2026-05-06 08:02 -16.51195 122.99639 538 ft 169 kts 216°
2026-05-06 08:02 -16.52140 122.98905 641 ft 171 kts 219°
2026-05-06 08:02 -16.52934 122.98004 778 ft 165 kts 252°
2026-05-06 08:02 -16.52862 122.96918 892 ft 143 kts 297°
2026-05-06 08:03 -16.52548 122.95968 787 ft 139 kts 292°
2026-05-06 08:03 -16.52259 122.95049 536 ft 126 kts 293°
2026-05-06 08:03 -16.52028 122.94210 385 ft 115 kts 292°
2026-05-06 08:03 -16.51816 122.93421 266 ft 116 kts 290°
2026-05-06 08:04 -16.51599 122.92613 153 ft 109 kts 289°
2026-05-06 08:04 -16.51450 122.92055 136 ft 45 kts 283°
2026-05-06 08:04 -16.51431 122.91920 136 ft 12 kts 213°
2026-05-06 08:04 -16.51497 122.91921 135 ft 8 kts 196°
2026-05-06 08:05 -16.51520 122.91899 135 ft 2 kts 288°
2026-05-06 08:05 -16.51517 122.91889 135 ft 0 kts 285°
2026-05-06 08:07 -16.51515 122.91868 134 ft 6 kts 234°
2026-05-06 08:07 -16.51528 122.91874 134 ft 3 kts 107°
2026-05-06 08:07 -16.51529 122.91879 134 ft 0 kts 104°